Chetumal, Mexico

9:04 AM on February 26, 2017 (GMT +0000)
Chetumal International

Weather History for MMCM - November, 2012

Change the Weather History Date:

Thursday, November 1, 2012

  Actual Average Record
Temperature  
Mean Temperature 79 °F -  
Max Temperature 94 °F 82 °F 94 °F (2012)
Min Temperature 64 °F 71 °F 32 °F (1996)
Cooling Degree Days 14    
Growing Degree Days 29 (Base 50)    
Moisture  
Dew Point 71 °F    
Average Humidity 73    
Maximum Humidity 90    
Minimum Humidity 34    
Precipitation  
Precipitation 0.00 in - - ()
Sea Level Pressure  
Sea Level Pressure 29.99 in    
Wind  
Wind Speed 11 mph ()    
Max Wind Speed 90 mph    
Max Gust Speed -    
Visibility 6.5 miles    
Events      
Averages and records for this station are not official NWS values.
T = Trace of Precipitation, MM = Missing Value Source: Averaged Metar Reports

Daily Weather History Graph

Daily Weather History Graph

Search for Another Location

Airport or City:

Trip Planner

Search our weather history database for the weather conditions in past years. The results will help you decide how hot, cold, wet, or windy it might be!

Date:

Astronomy

Nov. 01, 2012 Rise Set
Actual Time 5:53 AM CST 5:20 PM CST
Civil Twilight 5:30 AM CST 5:42 PM CST
Nautical Twilight 5:04 AM CST 6:08 PM CST
Astronomical Twilight 4:38 AM CST 6:34 PM CST
Moon 7:33 PM CST (11/1) 8:09 AM CST (11/1)
Length of Visible Light 12h 11m
Length of Day
11h 26m
Waning Gibbous, 92% of the Moon is Illuminated
Nov 1
Waning Gibbous
Nov 6
Last Quarter
Nov 13
New
Nov 20
First Quarter
Nov 28
Full

Hourly Weather History & Observations

Time (CST) Temp. Heat Index Dew Point Humidity Pressure Visibility Wind Dir Wind Speed Gust Speed Precip Events Conditions
2:45 AM 83 °F - 65 °F 44% 29.99 in 5 mi NNW 2.2 mph - -   Scattered Clouds
5:45 AM 66 °F - 64 °F 90% 30.02 in 6 mi 89.5 mph - -   Scattered Clouds
5:45 AM 68.0 °F - 64.4 °F 88% 29.96 in 7.0 mi NNW 5.8 mph - N/A   Scattered Clouds
6:45 AM 68.0 °F - 64.4 °F 88% 29.96 in 7.0 mi NNW 5.8 mph - N/A   Scattered Clouds
7:45 AM 69.8 °F - 64.4 °F 83% 30.01 in 7.0 mi Calm Calm - N/A   Scattered Clouds
8:50 AM 80 °F - 69 °F 61% 30.06 in 6 mi North 4.5 mph - -   Scattered Clouds
9:45 AM 78.8 °F - 69.8 °F 74% 30.03 in 7.0 mi Calm Calm - N/A   Scattered Clouds
10:45 AM 84.2 °F 94.1 °F 77.0 °F 79% 30.02 in 7.0 mi NNE 11.5 mph - N/A   Scattered Clouds
11:45 AM 86.0 °F 96.9 °F 77.0 °F 74% 30.00 in 7.0 mi NNE 11.5 mph - N/A   Scattered Clouds
11:50 AM 90 °F - 65 °F 34% 30.02 in 6 mi ENE 4.5 mph - -   Scattered Clouds
12:45 PM 86.0 °F 96.9 °F 77.0 °F 74% 29.99 in 7.0 mi NNE 11.5 mph - N/A   Scattered Clouds
1:45 PM 86.0 °F 96.9 °F 77.0 °F 74% 29.94 in 7.0 mi NNE 11.5 mph - N/A   Mostly Cloudy
2:44 PM 87.8 °F 99.7 °F 77.0 °F 70% 29.94 in 7.0 mi NNE 9.2 mph - N/A   Scattered Clouds
2:50 PM 89 °F - 77 °F 61% 29.96 in 6 mi ENE 6.7 mph - -   Partly Cloudy
3:45 PM 86.0 °F 96.9 °F 77.0 °F 74% 29.93 in 7.0 mi ENE 9.2 mph - N/A   Mostly Cloudy
4:45 PM 86.0 °F 96.9 °F 77.0 °F 74% 29.94 in 7.0 mi ENE 9.2 mph - N/A   Mostly Cloudy
5:44 PM 82.4 °F 89.5 °F 75.2 °F 79% 29.95 in 7.0 mi ENE 6.9 mph - N/A   Scattered Clouds
5:50 PM 78 °F - 71 °F 73% 29.98 in 5 mi ENE 4.5 mph - -   Partly Cloudy
6:45 PM 78.8 °F - 71.6 °F 78% 29.96 in 7.0 mi NNE 6.9 mph - N/A   Scattered Clouds
7:45 PM 77.0 °F - 69.8 °F 78% 29.99 in 7.0 mi Calm Calm - N/A   Scattered Clouds
8:40 PM 75.2 °F - 66.2 °F 73% 30.00 in 7.0 mi Calm Calm - N/A   Scattered Clouds
8:50 PM 76 °F - 69 °F 74% 30.04 in 5 mi NE 4.5 mph - -   Scattered Clouds
11:50 PM 72 °F - 69 °F 85% 30.02 in 5 mi NE 2.2 mph - -   Scattered Clouds